DECAYED

OBJECT XW, 66910 (Decayed)

Orbit data source: Space-Track

You're viewing an uncataloged RSO

Recently launched and/or uncataloged RSOs may have evolving metadata. Metadata may include the following, but is not limited to: Owner, Manufacturer, Bus, Motor, and Mission.

OBJECT XW, 66910 was an American satellite in LEO that was delivered to and deployed from the ISS. Unknown objects in Earth's orbit typically refer to objects detected orbiting the Earth but have not yet been identified or cataloged. These objects could be anything from previously untracked satellites, spent rocket stages, debris from satellite collisions, or even natural meteoroids temporarily captured by Earth's gravity. This object's orbit decayed before it could be identified.

Not visible in the next 10 days
Identifier
66910, 1998-067XW
Orbit
Decayed
Country
Flag of USUS
Related business
None
Manufacturer
Unknown
Mission
Decayed Commercial Technology
Bus & Motor
Unknown
Mass
Unknown
Launch date (UTC)
1998-11-20 (28 years ago)
Launch vehicle
FALCON 9
Launch site
Tyuratam Missile And Space Complex (TTMTR)
Object type
Unknown
Shape & HBR
Box, 0.2 m
Radar Cross Section
0.080 m², Medium (>0.1 m² and < 1m²)

Expand to show TLE details & history
Last TLE update: 4 months ago

TLE from 4 months ago
0 OBJECT XW
1 66910U 98067XW  26136.92748127  .04882695  12034-4  12474-2 0  9996
2 66910  51.6057  69.2818 0006053 232.0413 128.0062 16.27993061 26002
Epoch: 2026-05-16T22:15Z
TLE epoch observation values (Epoch: 2026-05-16T22:15:34.381Z)
Latitude
-0.00003°
Longitude
-139.2489°
Altitude
201.153 km
Speed
7.786 km/s
True Right ascension
04h 37m 07s
True Declination
0° 00' 00"
Sunlit
Object was in daylight at epoch
Visualization orbit readout
Latitude
Unknown
Longitude
Unknown
Altitude
Unknown
Speed
Unknown
Apparent Right ascension
Unknown
Apparent Declination
Unknown
Sunlit
N/A
Visualization observer readout
Local Sidereal Time
14:09:40
Azimuth
Unknown
Elevation
Unknown
Doppler factor
Unknown
Orbital elements
Apogee altitude
202.45 km
Perigee altitude
194.488 km
Semi-major axis
6,576.606 km
Eccentricity
0.00061
Inclination
51.6057°
RAAN
69.2818°
Arg. of periapsis
232.0413°
True anomaly
128.06083°
Mean anomaly
128.0062°
Eccentric anomaly
128.03352°
Mean motion
4.06949 °/min
Orbital period
88.46 mins
BSTAR
0.0012474
Loading maneuver chart data...
Computing Atmospheric mass density...

Documentation

Showing up to 5 results
|